{"data":{"norad_id":59006,"intl_designator":"2024-036J","name":"STARLINK-31450","alt_names":[],"object_type":"PAYLOAD","status":"ACTIVE","operator":null,"country":"US","launch_date":"2024-02-23","launch_site_code":"AFWTR","launch_vehicle":null,"mission":null,"orbit_class":"UNKNOWN","rcs_meters":null,"size_class":null,"mass_kg":null,"dimensions":null,"purposes":["comms"],"wikipedia_slug":null,"has_3d_model":false,"image_url":null,"decayed_at":null,"tle_current":{"epoch":"2026-05-25T02:21:05.593824Z","epoch_age_seconds":66652,"freshness":"FRESH","line1":"1 59006U 24036J   26145.09798141 -.00000505  00000+0 -49253-5 0  9991","line2":"2 59006  53.1600  83.0773 0001110  91.9824 268.1303 15.30186579127021","mean_motion":15.30186579,"eccentricity":0.000111,"inclination_deg":53.16,"raan_deg":83.0773,"arg_perigee_deg":91.9824,"mean_anomaly_deg":268.1303,"bstar":-4.9253e-6,"rev_number":12702,"period_min":94.106171088042,"perigee_km":474.49441587126,"apogee_km":476.01586892687,"semimajor_km":6853.3921423991,"source":"CELESTRAK","updated_at":"2026-05-25T13:38:18.798973Z"}}}